This is the latest recevied weather packets stored in our database for station/object K7NDG. If no packets are shown the sender has not sent any weather packets the latest 10 day(s).
| Time | Temp. | Humidity | Pressure | Rain* | Wind** | Luminosity | Snow |
|---|---|---|---|---|---|---|---|
| 1777484412 | 15° C | 71% | 1025.6 hPa | 0 mm | - | 530 W/m² | - |
| 1777484109 | 14.44° C | 73% | 1025.4 hPa | 0 mm | - | 499 W/m² | - |
| 1777483804 | 13.89° C | 74% | 1025.5 hPa | 0 mm | - | 481 W/m² | - |
| 1777483501 | 13.33° C | 75% | 1025.7 hPa | 0 mm | - | 473 W/m² | - |
| 1777483196 | 12.78° C | 73% | 1025.7 hPa | 0 mm | - | 377 W/m² | - |
| 1777482893 | 12.78° C | 72% | 1025.6 hPa | 0 mm | - | 357 W/m² | - |
| 1777482589 | 12.78° C | 76% | 1025.8 hPa | 0 mm | - | 445 W/m² | - |
| 1777482286 | 12.22° C | 77% | 1025.6 hPa | 0 mm | - | 376 W/m² | - |
| 1777481983 | 12.22° C | 79% | 1025.7 hPa | 0 mm | - | 396 W/m² | - |
| 1777481681 | 11.67° C | 80% | 1025.8 hPa | 0 mm | - | 182 W/m² | - |
| 1777481378 | 11.67° C | 81% | 1025.8 hPa | 0 mm | - | 161 W/m² | - |
| 1777481074 | 11.11° C | 81% | 1026.1 hPa | 0 mm | - | 160 W/m² | - |
| 1777480771 | 10.56° C | 83% | 1026.1 hPa | 0 mm | - | 187 W/m² | - |
| 1777480468 | 10.56° C | 83% | 1025.9 hPa | 0 mm | - | 372 W/m² | - |
| 1777480163 | 10° C | 84% | 1026.2 hPa | 0 mm | - | 349 W/m² | - |
| 1777479860 | 10° C | 84% | 1026.1 hPa | 0 mm | - | 164 W/m² | - |
| 1777479557 | 9.44° C | 86% | 1026.2 hPa | 0 mm | - | 158 W/m² | - |
| 1777479255 | 9.44° C | 87% | 1026.2 hPa | 0 mm | - | 152 W/m² | - |
| 1777478952 | 8.89° C | 88% | 1026.3 hPa | 0 mm | - | 146 W/m² | - |
| 1777478648 | 8.89° C | 89% | 1026.1 hPa | 0 mm | - | 158 W/m² | - |
| 1777478345 | 8.33° C | 89% | 1026.4 hPa | 0 mm | - | 182 W/m² | - |
| 1777478041 | 7.78° C | 90% | 1026.4 hPa | 0 mm | - | 962 W/m² | - |
| 1777477736 | 7.78° C | 90% | 1026.6 hPa | 0 mm | - | 379 W/m² | - |
| 1777477433 | 7.22° C | 91% | 1026.5 hPa | 0 mm | - | 462 W/m² | - |
| 1777477130 | 7.22° C | 91% | 1026.4 hPa | 0 mm | - | 356 W/m² | - |
* Rain latest hour (hover to see other rain measurements)
** Current wind speed in m/s (hover to see current wind gust speed)